| time (UTC) | temp F | wind direction | speed knots | gust knots | rain 1hr in | rain 24hr in | rain mn in | humidity % | barometer mb |
| 20260507051147 | 78 | 173 | 5.2 | 11.3 | 0.00 | 0.00 | 0.00 | 94 | 1011.2 |
| 20260507050646 | 78 | 170 | 8.7 | 12.2 | 0.00 | 0.00 | 0.00 | 95 | 1011.2 |
| 20260507050147 | 78 | 165 | 6.1 | 12.2 | 0.00 | 0.00 | 0.00 | 95 | 1011.2 |
| 20260507045646 | 78 | 174 | 6.1 | 8.7 | 0.00 | 0.00 | 0.02 | 95 | 1011.2 |
| 20260507045146 | 78 | 178 | 5.2 | 9.6 | 0.00 | 0.00 | 0.02 | 94 | 1011.2 |
| 20260507044646 | 78 | 179 | 6.1 | 11.3 | 0.00 | 0.00 | 0.02 | 94 | 1011.2 |
| 20260507044146 | 78 | 178 | 7.0 | 11.3 | 0.00 | 0.00 | 0.02 | 94 | 1011.2 |
| 20260507043646 | 78 | 183 | 5.2 | 12.2 | 0.00 | 0.00 | 0.02 | 94 | 1011.2 |
| 20260507043147 | 78 | 173 | 7.0 | 11.3 | 0.00 | 0.00 | 0.02 | 93 | 1011.2 |
| 20260507042646 | 78 | 174 | 7.0 | 13.0 | 0.00 | 0.00 | 0.02 | 93 | 1011.2 |
| 20260507042146 | 78 | 170 | 8.7 | 12.2 | 0.00 | 0.00 | 0.02 | 94 | 1011.2 |
| 20260507041646 | 78 | 157 | 12.2 | 14.8 | 0.00 | 0.00 | 0.02 | 93 | 1011.2 |
| 20260507041146 | 78 | 167 | 7.8 | 12.2 | 0.00 | 0.00 | 0.02 | 93 | 1011.2 |
| 20260507040647 | 78 | 166 | 9.6 | 13.9 | 0.00 | 0.00 | 0.02 | 93 | 1011.2 |
| 20260507040146 | 78 | 162 | 9.6 | 14.8 | 0.00 | 0.00 | 0.02 | 93 | 1011.2 |
| 20260507035646 | 78 | 180 | 8.7 | 11.3 | 0.00 | 0.00 | 0.02 | 93 | 1011.2 |
| 20260507035147 | 78 | 163 | 9.6 | 12.2 | 0.00 | 0.00 | 0.02 | 92 | 1011.2 |
| 20260507034646 | 78 | 180 | 7.0 | 11.3 | 0.00 | 0.00 | 0.02 | 92 | 1011.2 |
| 20260507034147 | 78 | 158 | 6.1 | 9.6 | 0.00 | 0.00 | 0.02 | 93 | 1011.2 |
| 20260507033647 | 78 | 175 | 5.2 | 10.4 | 0.00 | 0.00 | 0.02 | 92 | 1011.2 |
| 20260507033147 | 78 | 164 | 8.7 | 11.3 | 0.00 | 0.00 | 0.02 | 92 | 1011.2 |
| 20260507032647 | 78 | 173 | 7.8 | 11.3 | 0.00 | 0.00 | 0.02 | 92 | 1011.2 |
| 20260507032147 | 79 | 176 | 7.0 | 13.0 | 0.00 | 0.00 | 0.02 | 92 | 1011.2 |
| 20260507031648 | 79 | 167 | 10.4 | 13.9 | 0.00 | 0.00 | 0.02 | 92 | 1011.5 |
| 20260507031148 | 79 | 169 | 7.0 | 15.6 | 0.00 | 0.00 | 0.02 | 92 | 1011.2 |
| 20260507030647 | 79 | 152 | 8.7 | 13.0 | 0.00 | 0.00 | 0.02 | 92 | 1011.2 |
| 20260507030148 | 79 | 163 | 4.3 | 13.0 | 0.00 | 0.00 | 0.02 | 92 | 1011.2 |
| 20260507025647 | 79 | 150 | 7.8 | 14.8 | 0.00 | 0.00 | 0.02 | 92 | 1011.2 |
| 20260507025147 | 79 | 160 | 7.8 | 8.7 | 0.00 | 0.00 | 0.02 | 92 | 1011.2 |
| 20260507024647 | 79 | 150 | 5.2 | 12.2 | 0.00 | 0.00 | 0.02 | 92 | 1011.2 |
| 20260507024147 | 79 | 169 | 9.6 | 10.4 | 0.00 | 0.00 | 0.02 | 91 | 1011.2 |
| 20260507023646 | 79 | 160 | 6.1 | 10.4 | 0.00 | 0.00 | 0.02 | 91 | 1011.2 |
| 20260507023146 | 79 | 172 | 4.3 | 10.4 | 0.00 | 0.00 | 0.02 | 91 | 1011.5 |
| 20260507022646 | 79 | 175 | 6.1 | 7.8 | 0.00 | 0.00 | 0.02 | 91 | 1011.5 |
| 20260507022148 | 79 | 149 | 9.6 | 10.4 | 0.00 | 0.00 | 0.02 | 91 | 1011.2 |
| 20260507021646 | 79 | 184 | 6.1 | 9.6 | 0.00 | 0.00 | 0.02 | 91 | 1011.2 |
| 20260507021147 | 79 | 162 | 7.0 | 8.7 | 0.00 | 0.00 | 0.02 | 91 | 1011.2 |
| 20260507020647 | 79 | 205 | 4.3 | 10.4 | 0.00 | 0.00 | 0.02 | 91 | 1011.2 |
| 20260507020149 | 79 | 180 | 8.7 | 12.2 | 0.00 | 0.00 | 0.02 | 91 | 1011.2 |
| 20260507015646 | 79 | 187 | 6.1 | 7.8 | 0.00 | 0.00 | 0.02 | 91 | 1010.8 |
| 20260507015146 | 79 | 155 | 7.8 | 10.4 | 0.00 | 0.00 | 0.02 | 91 | 1010.8 |
| 20260507014647 | 79 | 166 | 7.0 | 10.4 | 0.00 | 0.00 | 0.02 | 91 | 1010.8 |
| 20260507014146 | 79 | 172 | 2.6 | 9.6 | 0.00 | 0.00 | 0.02 | 91 | 1010.5 |
| 20260507013646 | 79 | 168 | 7.0 | 10.4 | 0.00 | 0.00 | 0.02 | 92 | 1010.8 |
| 20260507013146 | 79 | 170 | 6.1 | 11.3 | 0.00 | 0.00 | 0.02 | 92 | 1010.8 |
| 20260507012647 | 79 | 166 | 6.1 | 8.7 | 0.00 | 0.00 | 0.02 | 92 | 1010.8 |
| 20260507012150 | 79 | 157 | 6.1 | 9.6 | 0.00 | 0.00 | 0.02 | 92 | 1010.8 |
| 20260507011646 | 79 | 160 | 7.0 | 8.7 | 0.00 | 0.00 | 0.02 | 92 | 1010.8 |
| 20260507011147 | 79 | 162 | 5.2 | 7.8 | 0.00 | 0.00 | 0.02 | 92 | 1010.5 |
| 20260507010646 | 79 | 159 | 9.6 | 10.4 | 0.00 | 0.00 | 0.02 | 92 | 1010.8 |
| 20260507010147 | 79 | 169 | 5.2 | 7.0 | 0.00 | 0.00 | 0.02 | 93 | 1010.8 |
| 20260507005647 | 79 | 166 | 9.6 | 11.3 | 0.00 | 0.00 | 0.02 | 92 | 1010.5 |
| 20260507005146 | 79 | 180 | 4.3 | 8.7 | 0.00 | 0.00 | 0.02 | 92 | 1010.5 |
| 20260507004648 | 80 | 160 | 7.8 | 11.3 | 0.00 | 0.00 | 0.02 | 92 | 1010.5 |
| 20260507004147 | 80 | 157 | 7.8 | 10.4 | 0.00 | 0.00 | 0.02 | 92 | 1010.5 |
| 20260507003647 | 80 | 156 | 7.8 | 10.4 | 0.00 | 0.00 | 0.02 | 92 | 1010.5 |
| 20260507003147 | 80 | 167 | 8.7 | 9.6 | 0.00 | 0.00 | 0.02 | 92 | 1010.5 |
| 20260507002646 | 80 | 162 | 4.3 | 13.0 | 0.00 | 0.00 | 0.02 | 91 | 1010.5 |
| 20260507002147 | 80 | 162 | 5.2 | 8.7 | 0.00 | 0.00 | 0.02 | 91 | 1010.5 |
| 20260507001647 | 80 | 159 | 5.2 | 10.4 | 0.00 | 0.00 | 0.02 | 91 | 1010.2 |
| 20260507001147 | 80 | 161 | 7.0 | 9.6 | 0.00 | 0.00 | 0.02 | 91 | 1010.5 |
| 20260507000647 | 80 | 165 | 6.1 | 13.0 | 0.00 | 0.00 | 0.02 | 91 | 1010.5 |
| 20260507000146 | 80 | 167 | 7.8 | 13.9 | 0.00 | 0.00 | 0.02 | 90 | 1010.2 |
| 20260506235646 | 80 | 145 | 6.1 | 13.0 | 0.00 | 0.00 | 0.02 | 90 | 1010.2 |
| 20260506235147 | 80 | 168 | 7.8 | 11.3 | 0.00 | 0.00 | 0.02 | 90 | 1010.2 |
| 20260506234647 | 80 | 166 | 9.6 | 13.0 | 0.00 | 0.00 | 0.02 | 90 | 1010.2 |
| 20260506234147 | 80 | 160 | 6.1 | 10.4 | 0.00 | 0.00 | 0.02 | 89 | 1010.2 |
| 20260506233646 | 80 | 169 | 7.0 | 9.6 | 0.00 | 0.00 | 0.02 | 89 | 1010.2 |
| 20260506233147 | 81 | 193 | 6.1 | 10.4 | 0.00 | 0.00 | 0.02 | 89 | 1010.2 |
| 20260506232647 | 81 | 169 | 7.8 | 13.9 | 0.00 | 0.00 | 0.02 | 88 | 1010.2 |
| 20260506232147 | 81 | 151 | 9.6 | 11.3 | 0.00 | 0.00 | 0.02 | 88 | 1010.2 |
| 20260506231646 | 81 | 167 | 8.7 | 13.0 | 0.00 | 0.00 | 0.02 | 87 | 1009.8 |
| 20260506231147 | 81 | 164 | 7.0 | 16.5 | 0.00 | 0.00 | 0.02 | 87 | 1009.8 |
| 20260506230646 | 81 | 170 | 13.0 | 15.6 | 0.00 | 0.00 | 0.02 | 87 | 1009.8 |
| 20260506230146 | 81 | 164 | 9.6 | 14.8 | 0.00 | 0.00 | 0.02 | 87 | 1010.2 |
| 20260506225646 | 82 | 154 | 7.0 | 8.7 | 0.00 | 0.00 | 0.02 | 87 | 1010.2 |
| 20260506225147 | 81 | 167 | 7.0 | 13.9 | 0.00 | 0.00 | 0.02 | 87 | 1010.2 |
| 20260506224646 | 82 | 190 | 9.6 | 11.3 | 0.00 | 0.00 | 0.02 | 86 | 1010.2 |
| 20260506224146 | 82 | 166 | 11.3 | 16.5 | 0.00 | 0.00 | 0.02 | 86 | 1010.2 |
| 20260506223646 | 82 | 170 | 11.3 | 12.2 | 0.00 | 0.00 | 0.02 | 85 | 1010.2 |
| 20260506223147 | 82 | 141 | 8.7 | 13.0 | 0.00 | 0.00 | 0.02 | 85 | 1010.2 |
| 20260506222647 | 82 | 155 | 7.8 | 11.3 | 0.00 | 0.00 | 0.02 | 84 | 1010.2 |
| 20260506222146 | 83 | 175 | 7.8 | 11.3 | 0.00 | 0.00 | 0.02 | 84 | 1010.5 |
| 20260506221651 | 83 | 182 | 10.4 | 15.6 | 0.00 | 0.00 | 0.02 | 82 | 1010.5 |
| 20260506221146 | 83 | 162 | 6.1 | 13.9 | 0.00 | 0.00 | 0.02 | 83 | 1010.5 |
| 20260506220647 | 83 | 166 | 10.4 | 15.6 | 0.00 | 0.00 | 0.02 | 82 | 1010.5 |
| 20260506220147 | 83 | 178 | 8.7 | 14.8 | 0.00 | 0.00 | 0.02 | 82 | 1010.5 |
| 20260506215646 | 83 | 169 | 12.2 | 17.4 | 0.00 | 0.00 | 0.02 | 82 | 1010.8 |
| 20260506215146 | 84 | 172 | 8.7 | 13.0 | 0.00 | 0.00 | 0.02 | 80 | 1010.5 |
| 20260506214646 | 84 | 170 | 7.8 | 12.2 | 0.00 | 0.00 | 0.02 | 81 | 1010.5 |
| 20260506214147 | 84 | 164 | 12.2 | 15.6 | 0.00 | 0.00 | 0.02 | 80 | 1010.5 |
| 20260506213646 | 83 | 179 | 11.3 | 13.9 | 0.00 | 0.00 | 0.02 | 81 | 1010.5 |
| 20260506213149 | 84 | 156 | 9.6 | 15.6 | 0.00 | 0.00 | 0.02 | 80 | 1010.8 |
| 20260506212648 | 84 | 175 | 6.1 | 12.2 | 0.00 | 0.00 | 0.02 | 80 | 1010.8 |
| 20260506212147 | 84 | 171 | 10.4 | 14.8 | 0.00 | 0.00 | 0.02 | 79 | 1010.8 |
| 20260506211646 | 84 | 137 | 12.2 | 14.8 | 0.00 | 0.00 | 0.02 | 80 | 1010.8 |
| 20260506211147 | 84 | 170 | 12.2 | 13.9 | 0.00 | 0.00 | 0.02 | 79 | 1010.8 |
| 20260506210646 | 84 | 163 | 8.7 | 12.2 | 0.00 | 0.00 | 0.02 | 80 | 1010.8 |
| 20260506210147 | 84 | 159 | 7.8 | 13.9 | 0.00 | 0.00 | 0.02 | 79 | 1010.8 |
| 20260506205647 | 84 | 166 | 14.8 | 18.2 | 0.00 | 0.00 | 0.02 | 78 | 1010.8 |
| 20260506205146 | 85 | 180 | 9.6 | 10.4 | 0.00 | 0.00 | 0.02 | 79 | 1010.5 |
| 20260506204647 | 84 | 186 | 8.7 | 13.9 | 0.00 | 0.00 | 0.02 | 80 | 1010.8 |
| 20260506204147 | 84 | 173 | 9.6 | 12.2 | 0.00 | 0.00 | 0.02 | 80 | 1011.2 |
| 20260506203647 | 84 | 159 | 8.7 | 15.6 | 0.00 | 0.00 | 0.02 | 81 | 1011.2 |
| 20260506203147 | 84 | 144 | 6.1 | 15.6 | 0.00 | 0.00 | 0.02 | 81 | 1011.2 |
| 20260506202647 | 85 | 168 | 9.6 | 13.0 | 0.00 | 0.00 | 0.02 | 79 | 1011.2 |
| 20260506202146 | 84 | 167 | 7.0 | 13.9 | 0.00 | 0.00 | 0.02 | 79 | 1011.2 |
| 20260506201647 | 84 | 168 | 10.4 | 17.4 | 0.00 | 0.00 | 0.02 | 78 | 1011.5 |
| 20260506201147 | 84 | 151 | 9.6 | 18.2 | 0.00 | 0.00 | 0.02 | 78 | 1011.9 |
| 20260506200157 | 84 | 164 | 8.7 | 13.9 | 0.00 | 0.00 | 0.02 | 79 | 1011.5 |
| 20260506195648 | 84 | 151 | 7.8 | 12.2 | 0.00 | 0.00 | 0.02 | 80 | 1011.9 |
| 20260506195147 | 84 | 151 | 7.8 | 10.4 | 0.00 | 0.00 | 0.02 | 80 | 1011.9 |
| 20260506194647 | 84 | 168 | 12.2 | 13.0 | 0.00 | 0.00 | 0.02 | 79 | 1012.2 |
| 20260506194147 | 83 | 180 | 7.0 | 10.4 | 0.00 | 0.00 | 0.02 | 80 | 1011.9 |
| 20260506193647 | 83 | 181 | 6.1 | 12.2 | 0.00 | 0.00 | 0.02 | 81 | 1012.2 |
| 20260506193147 | 83 | 166 | 10.4 | 14.8 | 0.00 | 0.00 | 0.02 | 80 | 1012.2 |
| 20260506192648 | 83 | 175 | 7.8 | 10.4 | 0.00 | 0.00 | 0.02 | 81 | 1012.2 |
| 20260506192146 | 83 | 171 | 7.0 | 12.2 | 0.00 | 0.00 | 0.02 | 80 | 1012.5 |
| 20260506191647 | 83 | 163 | 8.7 | 13.0 | 0.00 | 0.00 | 0.02 | 80 | 1012.5 |
| 20260506191147 | 83 | 165 | 9.6 | 13.0 | 0.00 | 0.00 | 0.02 | 80 | 1012.2 |
| 20260506190647 | 83 | 157 | 5.2 | 8.7 | 0.00 | 0.00 | 0.02 | 80 | 1012.5 |
| 20260506190148 | 83 | 161 | 7.8 | 11.3 | 0.00 | 0.00 | 0.02 | 79 | 1012.9 |
| 20260506185646 | 84 | 164 | 7.0 | 11.3 | 0.00 | 0.00 | 0.02 | 79 | 1012.5 |
| 20260506185147 | 84 | 137 | 8.7 | 11.3 | 0.00 | 0.00 | 0.02 | 79 | 1012.5 |
| 20260506184647 | 84 | 172 | 7.8 | 10.4 | 0.00 | 0.00 | 0.02 | 81 | 1012.9 |
| 20260506183724 | 83 | 177 | 4.3 | 10.4 | 0.00 | 0.00 | 0.02 | 81 | 1013.2 |
| 20260506183147 | 83 | 177 | 7.8 | 11.3 | 0.00 | 0.00 | 0.02 | 81 | 1013.2 |
| 20260506182647 | 83 | 163 | 8.7 | 13.0 | 0.00 | 0.00 | 0.02 | 80 | 1012.9 |
| 20260506182147 | 83 | 185 | 7.8 | 12.2 | 0.00 | 0.00 | 0.02 | 80 | 1013.2 |
| 20260506181647 | 83 | 157 | 7.8 | 10.4 | 0.00 | 0.00 | 0.02 | 80 | 1012.9 |
| 20260506181147 | 83 | 154 | 6.1 | 14.8 | 0.00 | 0.00 | 0.02 | 80 | 1012.9 |
| 20260506180646 | 83 | 180 | 6.1 | 12.2 | 0.00 | 0.00 | 0.02 | 80 | 1012.9 |
| 20260506180146 | 84 | 167 | 7.8 | 14.8 | 0.00 | 0.00 | 0.02 | 80 | 1012.9 |
| 20260506175646 | 83 | 201 | 8.7 | 11.3 | 0.00 | 0.00 | 0.02 | 81 | 1013.2 |
| 20260506175147 | 83 | 185 | 9.6 | 13.9 | 0.00 | 0.00 | 0.02 | 83 | 1013.2 |
| 20260506174646 | 83 | 161 | 10.4 | 13.9 | 0.00 | 0.00 | 0.02 | 82 | 1013.2 |
| 20260506174147 | 82 | 201 | 5.2 | 10.4 | 0.00 | 0.00 | 0.02 | 84 | 1013.2 |
| 20260506173648 | 82 | 170 | 6.1 | 9.6 | 0.00 | 0.00 | 0.02 | 85 | 1013.2 |
| 20260506173147 | 82 | 160 | 6.1 | 10.4 | 0.00 | 0.00 | 0.02 | 86 | 1013.2 |
| 20260506172647 | 82 | 170 | 7.8 | 8.7 | 0.00 | 0.00 | 0.02 | 87 | 1013.5 |
| 20260506172147 | 81 | 184 | 6.1 | 7.8 | 0.00 | 0.00 | 0.02 | 88 | 1013.5 |
| 20260506171647 | 80 | 173 | 8.7 | 9.6 | 0.00 | 0.00 | 0.02 | 88 | 1013.5 |
| 20260506171147 | 80 | 163 | 9.6 | 9.6 | 0.00 | 0.00 | 0.02 | 90 | 1013.5 |
| 20260506170646 | 80 | 157 | 8.7 | 10.4 | 0.02 | 0.00 | 0.02 | 91 | 1013.5 |
| 20260506170147 | 80 | 172 | 3.5 | 9.6 | 0.02 | 0.00 | 0.02 | 91 | 1013.5 |
| 20260506165650 | 80 | 166 | 10.4 | 12.2 | 0.00 | 0.00 | 0.01 | 89 | 1013.9 |
| 20260506165147 | 80 | 168 | 7.8 | 13.0 | 0.00 | 0.00 | 0.01 | 88 | 1013.5 |
| 20260506164647 | 81 | 161 | 9.6 | 11.3 | 0.00 | 0.00 | 0.01 | 87 | 1013.5 |
| 20260506164147 | 81 | 164 | 4.3 | 12.2 | 0.00 | 0.00 | 0.01 | 88 | 1013.5 |
| 20260506163648 | 80 | 170 | 5.2 | 13.0 | 0.00 | 0.00 | 0.01 | 88 | 1013.5 |
| 20260506163146 | 81 | 180 | 6.1 | 11.3 | 0.00 | 0.00 | 0.01 | 88 | 1013.5 |
| 20260506162647 | 80 | 174 | 8.7 | 11.3 | 0.00 | 0.00 | 0.01 | 88 | 1013.2 |
| 20260506162146 | 81 | 170 | 7.8 | 12.2 | 0.00 | 0.00 | 0.01 | 87 | 1013.2 |
| 20260506161647 | 81 | 152 | 8.7 | 9.6 | 0.00 | 0.00 | 0.01 | 87 | 1012.9 |
| 20260506161146 | 81 | 160 | 5.2 | 7.0 | 0.00 | 0.00 | 0.01 | 88 | 1013.2 |
| 20260506160648 | 80 | 183 | 7.0 | 10.4 | 0.00 | 0.00 | 0.01 | 89 | 1013.2 |
| 20260506160147 | 80 | 197 | 4.3 | 13.9 | 0.00 | 0.00 | 0.01 | 88 | 1013.2 |
| 20260506155647 | 81 | 167 | 7.8 | 10.4 | 0.00 | 0.00 | 0.01 | 88 | 1012.9 |
| 20260506155147 | 81 | 186 | 7.0 | 8.7 | 0.00 | 0.00 | 0.01 | 89 | 1012.9 |
| 20260506154647 | 80 | 170 | 7.0 | 11.3 | 0.00 | 0.00 | 0.01 | 89 | 1013.2 |
| 20260506154147 | 80 | 163 | 7.8 | 11.3 | 0.00 | 0.00 | 0.01 | 89 | 1013.2 |
| 20260506153647 | 80 | 169 | 7.0 | 9.6 | 0.00 | 0.00 | 0.01 | 90 | 1012.9 |
| 20260506153147 | 79 | 159 | 9.6 | 11.3 | 0.00 | 0.00 | 0.01 | 90 | 1012.9 |
| 20260506152646 | 79 | 176 | 9.6 | 13.0 | 0.00 | 0.00 | 0.01 | 91 | 1012.9 |
| 20260506152146 | 79 | 184 | 7.8 | 11.3 | 0.00 | 0.00 | 0.01 | 91 | 1012.9 |
| 20260506151647 | 79 | 163 | 5.2 | 8.7 | 0.00 | 0.00 | 0.01 | 91 | 1012.9 |
| 20260506151147 | 79 | 172 | 6.1 | 9.6 | 0.00 | 0.00 | 0.01 | 91 | 1012.9 |
| 20260506150646 | 79 | 164 | 7.8 | 9.6 | 0.00 | 0.00 | 0.01 | 91 | 1012.9 |
| 20260506150147 | 79 | 173 | 7.0 | 9.6 | 0.00 | 0.00 | 0.01 | 91 | 1012.9 |
| 20260506145647 | 79 | 153 | 7.0 | 13.0 | 0.00 | 0.00 | 0.01 | 92 | 1012.9 |
| 20260506145147 | 79 | 167 | 7.0 | 9.6 | 0.00 | 0.00 | 0.01 | 92 | 1012.9 |
| 20260506144646 | 78 | 167 | 8.7 | 10.4 | 0.00 | 0.00 | 0.01 | 93 | 1012.9 |
| 20260506144147 | 78 | 175 | 5.2 | 11.3 | 0.00 | 0.00 | 0.01 | 93 | 1012.9 |
| 20260506143648 | 78 | 163 | 9.6 | 11.3 | 0.00 | 0.00 | 0.01 | 93 | 1012.9 |
| 20260506143146 | 78 | 164 | 8.7 | 11.3 | 0.00 | 0.00 | 0.01 | 93 | 1012.9 |
| 20260506142647 | 78 | 147 | 6.1 | 10.4 | 0.00 | 0.00 | 0.01 | 94 | 1012.5 |
| 20260506142147 | 78 | 169 | 4.3 | 11.3 | 0.00 | 0.00 | 0.01 | 94 | 1012.2 |
| 20260506141647 | 78 | 156 | 5.2 | 9.6 | 0.00 | 0.00 | 0.01 | 94 | 1012.5 |
| 20260506141154 | 77 | 178 | 7.8 | 9.6 | 0.00 | 0.00 | 0.01 | 95 | 1012.5 |
| 20260506140647 | 77 | 168 | 6.1 | 9.6 | 0.00 | 0.00 | 0.01 | 95 | 1012.5 |
| 20260506140149 | 77 | 170 | 5.2 | 10.4 | 0.00 | 0.00 | 0.01 | 95 | 1012.5 |
| 20260506135647 | 77 | 162 | 7.8 | 11.3 | 0.00 | 0.00 | 0.01 | 95 | 1012.2 |
| 20260506135147 | 77 | 153 | 7.0 | 7.0 | 0.00 | 0.00 | 0.01 | 96 | 1012.5 |
| 20260506134647 | 77 | 151 | 4.3 | 7.8 | 0.00 | 0.00 | 0.01 | 96 | 1012.5 |
| 20260506134147 | 77 | 178 | 7.0 | 9.6 | 0.00 | 0.00 | 0.01 | 96 | 1012.5 |
| 20260506133647 | 77 | 142 | 5.2 | 10.4 | 0.00 | 0.00 | 0.01 | 97 | 1012.5 |
| 20260506133146 | 76 | 161 | 4.3 | 7.0 | 0.00 | 0.00 | 0.01 | 97 | 1012.5 |
| 20260506132646 | 76 | 146 | 3.5 | 7.8 | 0.00 | 0.00 | 0.01 | 97 | 1012.5 |
| 20260506132148 | 76 | 170 | 5.2 | 8.7 | 0.00 | 0.00 | 0.01 | 98 | 1012.5 |
| 20260506131646 | 76 | 159 | 4.3 | 7.0 | 0.00 | 0.00 | 0.01 | 98 | 1012.2 |
| 20260506131146 | 76 | 164 | 5.2 | 7.0 | 0.00 | 0.00 | 0.01 | 98 | 1012.5 |
| 20260506130647 | 75 | 154 | 5.2 | 7.8 | 0.00 | 0.00 | 0.01 | 98 | 1012.2 |
| 20260506130147 | 75 | 133 | 4.3 | 7.0 | 0.00 | 0.00 | 0.01 | 99 | 1012.2 |
| 20260506125647 | 75 | 130 | 6.1 | 6.1 | 0.00 | 0.00 | 0.01 | 99 | 1012.5 |
| 20260506125147 | 75 | 158 | 2.6 | 6.1 | 0.00 | 0.00 | 0.01 | 99 | 1012.5 |
| 20260506124647 | 75 | 147 | 1.7 | 5.2 | 0.00 | 0.00 | 0.01 | 99 | 1012.2 |
| 20260506124147 | 75 | 165 | 4.3 | 6.1 | 0.00 | 0.00 | 0.01 | 99 | 1012.2 |
| 20260506123647 | 75 | 161 | 4.3 | 5.2 | 0.00 | 0.00 | 0.01 | 99 | 1012.2 |
| 20260506123146 | 75 | 124 | 2.6 | 5.2 | 0.00 | 0.00 | 0.01 | 99 | 1012.2 |
| 20260506122647 | 75 | 159 | 2.6 | 7.0 | 0.00 | 0.00 | 0.01 | 99 | 1011.9 |
| 20260506122147 | 75 | 133 | 6.1 | 6.1 | 0.00 | 0.00 | 0.01 | 99 | 1011.9 |
| 20260506121647 | 75 | 142 | 2.6 | 6.1 | 0.00 | 0.00 | 0.01 | 99 | 1012.2 |
| 20260506121147 | 75 | 133 | 2.6 | 5.2 | 0.00 | 0.00 | 0.01 | 99 | 1011.9 |
| 20260506120647 | 74 | 137 | 1.7 | 6.1 | 0.00 | 0.00 | 0.01 | 99 | 1011.9 |
| 20260506120147 | 74 | 163 | 3.5 | 5.2 | 0.00 | 0.00 | 0.01 | 99 | 1011.9 |
| 20260506115646 | 74 | 134 | 6.1 | 6.1 | 0.00 | 0.00 | 0.01 | 99 | 1011.9 |
| 20260506115146 | 74 | 133 | 2.6 | 5.2 | 0.00 | 0.00 | 0.01 | 99 | 1011.5 |
| 20260506114646 | 74 | 154 | 3.5 | 6.1 | 0.00 | 0.00 | 0.01 | 99 | 1011.9 |
| 20260506114147 | 74 | 133 | 2.6 | 5.2 | 0.00 | 0.00 | 0.01 | 99 | 1011.5 |
| 20260506113646 | 74 | 171 | 5.2 | 5.2 | 0.00 | 0.00 | 0.01 | 99 | 1011.5 |
| 20260506113147 | 74 | 157 | 3.5 | 4.3 | 0.00 | 0.00 | 0.01 | 99 | 1011.5 |
| 20260506112646 | 74 | 135 | 2.6 | 5.2 | 0.00 | 0.00 | 0.01 | 99 | 1011.9 |
| 20260506112147 | 74 | 147 | 4.3 | 6.1 | 0.00 | 0.00 | 0.01 | 99 | 1011.9 |
| 20260506111647 | 74 | 168 | 6.1 | 6.1 | 0.00 | 0.00 | 0.01 | 99 | 1011.5 |
| 20260506111149 | 74 | 160 | 7.0 | 9.6 | 0.02 | 0.00 | 0.01 | 99 | 1011.5 |
| 20260506110648 | 74 | 164 | 5.2 | 6.1 | 0.02 | 0.00 | 0.01 | 99 | 1011.5 |
| 20260506110147 | 74 | 164 | 6.1 | 7.0 | 0.02 | 0.00 | 0.01 | 99 | 1011.5 |
| 20260506105649 | 74 | 150 | 2.6 | 6.1 | 0.02 | 0.00 | 0.00 | 98 | 1011.2 |
| 20260506105147 | 74 | 167 | 3.5 | 7.0 | 0.02 | 0.00 | 0.00 | 98 | 1011.2 |
| 20260506104648 | 74 | 142 | 4.3 | 4.3 | 0.00 | 0.00 | 0.00 | 98 | 1011.2 |
| 20260506104146 | 74 | 165 | 6.1 | 6.1 | 0.00 | 0.00 | 0.00 | 97 | 1011.2 |
| 20260506103646 | 75 | 138 | 3.5 | 6.1 | 0.00 | 0.00 | 0.00 | 97 | 1011.2 |
| 20260506103146 | 75 | 168 | 4.3 | 7.0 | 0.00 | 0.00 | 0.00 | 96 | 1011.2 |
| 20260506102648 | 75 | 162 | 2.6 | 4.3 | 0.00 | 0.00 | 0.00 | 95 | 1011.2 |
| 20260506102149 | 75 | 154 | 6.1 | 7.8 | 0.00 | 0.00 | 0.00 | 94 | 1011.2 |
| 20260506101647 | 75 | 162 | 2.6 | 7.8 | 0.00 | 0.00 | 0.00 | 94 | 1010.8 |
| 20260506101150 | 75 | 164 | 4.3 | 7.0 | 0.00 | 0.00 | 0.00 | 94 | 1011.2 |
| 20260506100647 | 75 | 145 | 3.5 | 7.8 | 0.00 | 0.00 | 0.00 | 94 | 1011.2 |
| 20260506100146 | 75 | 180 | 5.2 | 7.8 | 0.00 | 0.00 | 0.00 | 94 | 1011.2 |
| 20260506095650 | 75 | 146 | 2.6 | 7.0 | 0.00 | 0.00 | 0.00 | 94 | 1011.2 |
| 20260506095147 | 75 | 146 | 1.7 | 7.0 | 0.00 | 0.00 | 0.00 | 94 | 1010.8 |
| 20260506094646 | 75 | 163 | 2.6 | 6.1 | 0.00 | 0.00 | 0.00 | 94 | 1011.2 |
| 20260506094148 | 75 | 154 | 4.3 | 6.1 | 0.00 | 0.00 | 0.00 | 94 | 1011.2 |
| 20260506093648 | 75 | 168 | 5.2 | 7.0 | 0.00 | 0.00 | 0.00 | 94 | 1010.8 |
| 20260506093147 | 75 | 165 | 4.3 | 6.1 | 0.00 | 0.00 | 0.00 | 94 | 1011.2 |
| 20260506092648 | 75 | 138 | 2.6 | 5.2 | 0.00 | 0.00 | 0.00 | 94 | 1010.8 |
| 20260506092146 | 75 | 150 | 4.3 | 5.2 | 0.00 | 0.00 | 0.00 | 93 | 1011.2 |
| 20260506091647 | 74 | 126 | 5.2 | 6.1 | 0.00 | 0.00 | 0.00 | 93 | 1011.2 |
| 20260506091148 | 74 | 151 | 2.6 | 4.3 | 0.00 | 0.00 | 0.00 | 93 | 1011.2 |
| 20260506090647 | 74 | 139 | 2.6 | 6.1 | 0.00 | 0.00 | 0.00 | 93 | 1011.2 |
| 20260506090147 | 74 | 143 | 4.3 | 5.2 | 0.00 | 0.00 | 0.00 | 93 | 1011.2 |
| 20260506085649 | 74 | 162 | 5.2 | 6.1 | 0.00 | 0.00 | 0.00 | 93 | 1011.2 |
| 20260506085147 | 74 | 146 | 2.6 | 4.3 | 0.00 | 0.00 | 0.00 | 93 | 1011.2 |
| 20260506084646 | 74 | 141 | 1.7 | 5.2 | 0.00 | 0.00 | 0.00 | 92 | 1011.2 |
| 20260506084147 | 74 | 171 | 1.7 | 4.3 | 0.00 | 0.00 | 0.00 | 92 | 1011.2 |
| 20260506083647 | 74 | 158 | 3.5 | 5.2 | 0.00 | 0.00 | 0.00 | 92 | 1011.2 |
| 20260506083148 | 74 | 144 | 2.6 | 4.3 | 0.00 | 0.00 | 0.00 | 92 | 1011.2 |
| 20260506082647 | 74 | 156 | 2.6 | 4.3 | 0.00 | 0.00 | 0.00 | 92 | 1011.2 |
| 20260506082146 | 74 | 157 | 3.5 | 5.2 | 0.00 | 0.00 | 0.00 | 92 | 1010.8 |
| 20260506081649 | 74 | 156 | 3.5 | 5.2 | 0.00 | 0.00 | 0.00 | 92 | 1011.2 |
| 20260506081146 | 74 | 160 | 4.3 | 6.1 | 0.00 | 0.00 | 0.00 | 92 | 1011.2 |
| 20260506080647 | 74 | 156 | 4.3 | 7.0 | 0.00 | 0.00 | 0.00 | 92 | 1011.2 |
| 20260506080147 | 74 | 155 | 2.6 | 5.2 | 0.00 | 0.00 | 0.00 | 92 | 1010.8 |
| 20260506073147 | 73 | 144 | 2.6 | 7.8 | 0.00 | 0.00 | 0.00 | 92 | 1011.2 |
| 20260506072647 | 73 | 166 | 5.2 | 7.8 | 0.00 | 0.00 | 0.00 | 92 | 1011.2 |
| 20260506072147 | 73 | 154 | 4.3 | 5.2 | 0.00 | 0.00 | 0.00 | 93 | 1011.2 |
| 20260506071646 | 73 | 157 | 5.2 | 7.8 | 0.00 | 0.00 | 0.00 | 93 | 1011.2 |
| 20260506071147 | 73 | 172 | 5.2 | 6.1 | 0.00 | 0.00 | 0.00 | 94 | 1011.2 |
| 20260506070647 | 73 | 148 | 6.1 | 7.0 | 0.00 | 0.00 | 0.00 | 94 | 1011.2 |
| 20260506070152 | 73 | 134 | 2.6 | 5.2 | 0.00 | 0.00 | 0.00 | 94 | 1011.2 |
| 20260506062147 | 73 | 157 | 2.6 | 5.2 | 0.00 | 0.00 | 0.00 | 93 | 1011.5 |
| 20260506061647 | 73 | 156 | 2.6 | 6.1 | 0.00 | 0.00 | 0.00 | 93 | 1011.5 |
| 20260506061148 | 73 | 138 | 4.3 | 6.1 | 0.00 | 0.00 | 0.00 | 93 | 1011.5 |
| 20260506060646 | 73 | 166 | 1.7 | 7.8 | 0.00 | 0.00 | 0.00 | 93 | 1011.5 |
| 20260506060146 | 73 | 140 | 4.3 | 6.1 | 0.00 | 0.00 | 0.00 | 93 | 1011.5 |